map of FAO home
FAO - Airport
Location
City:  Faro, Faro, Portugal
ICAO:LPFR
IATA:FAO

Details
Type:Airport (Aerodrome, Airfield)
Use:Public/Civil, International (customs port of entry)
Latitude:3700'52"N (37.014425)
Longitude:757'57"W (-7.965910)
Datum:WGS 1984
Elevation:24 ft (7 m)
Variation:1.88W (WMM2015 magnetic declination)
0.12 annual change
Runways:1
Longest:8169 × 148 ft (2490 × 45 m), paved

Time
Time Zone:UTC+0 (DST+1)
Local Time:

Weather
METAR:LPFR 211430Z 21009KT 170V230 9999 FEW015 20/15 Q1012
TAF:LPFR 211100Z 2112/2212 22008KT 9999 BKN015
BECMG 2114/2116 26015KT SCT020
BECMG 2120/2122 29010KT
BECMG 2201/2203 34005KT 9999 SCT015
BECMG 2210/2212 20008KT FEW020

Related Locations
Nearby:
Farthest:NZRW: 12314 mi / 19818 km
Ruawai, NTL, NZ

Find:

   beyond  
but within

Other Information
Maps:
NOTAMs:
Links:
Sources:

  
flag of Portugal
flag of Faro
  

Sectional Chart

Flight Planning
at skyvector.com

Satellite Image

Google Maps Satellite view

 

Copyright © 2004-2018 Karl L. Swartz. All rights reserved.
The Great Circle Mapper name and logo are trademarks of the Great Circle Mapper.
All other trademarks mentioned herein belong to their respective owners.
Please see credits for attibutions and further copyright information.

  Follow gcmap on Facebook Follow gcmap on Twitter Follow gcmap on Google+ GCmap on LinkedIn

hCard Microformat

Geo Microformat